Вернуться в каталог

USA 570

АктивенВоенныеLEO
NORAD 66992·PAYLOAD·🇺🇸 United States

Запущен Dec 9, 2025 с Cape Canaveral Space Force Station

Loading…

Ближайшие Пролёты (ближайшие 24 часа)

TLE

УстаревшееSource: Mike McCants

Эпоха: Sep 7, 2026, 00:24 UTC

1 66992U 25291A   26250.01684479 0.00000000  00000-0  00000-0 0    08
2 66992  63.4418 302.4218 0108000 180.8117 179.1883 13.41005412    03

Отслеживайте USA 570 в реальном времени с AllMySat

Download on the App Store